Simultaneous Nadir Overpasses (SNOs) Predictions

Prediction of SNOs between AQUA and METOP-A Satellite Orbit:

Table of predicted SNOs for the next 14.0 days since TLE Epoch: 10/10/2020
Index Date (AQUA) Time (AQUA) Lat,Lon (AQUA) SZA (AQUA ) Date (METOP-A) Time (METOP-A) Lat,Lon (METOP-A) SZA (METOP-A ) Distance(km) Time Diff (sec)
1 10/12/2020 04:24:19 -76.65, -79.35 95.67 10/12/2020 04:23:34 -76.67, -79.27 95.64 3.16 45
2 10/12/2020 05:13:47 76.72, 88.06 84.42 10/12/2020 05:14:13 76.72, 88.22 84.41 4.03 26
3 10/14/2020 23:58:33 -76.66, -12.93 94.62 10/14/2020 23:57:58 -76.64, -13.05 94.63 3.42 35
4 10/15/2020 00:48:00 76.73, 154.47 85.47 10/15/2020 00:48:35 76.73, 154.61 85.46 3.53 35
5 10/17/2020 19:32:46 -76.67, 53.47 93.59 10/17/2020 19:32:19 -76.70, 53.51 93.55 3.51 27
6 10/17/2020 20:22:14 76.74,-139.14 86.51 10/17/2020 20:22:58 76.74,-139.01 86.50 3.31 44
7 10/20/2020 15:07:00 -76.69, 119.85 92.56 10/20/2020 15:06:42 -76.71, 119.89 92.53 2.73 18
8 10/20/2020 15:56:28 76.76, -72.77 87.54 10/20/2020 15:57:21 76.75, -72.63 87.52 3.61 53
9 10/23/2020 09:51:40 76.36, 19.77 88.05 10/23/2020 09:50:32 76.32, 17.51 88.12 59.66 68
10 10/23/2020 10:41:14 -76.71,-173.80 91.54 10/23/2020 10:41:05 -76.72,-173.74 91.54 1.78 9
